Time,TemperatureF,DewpointF,PressureIn,WindDirection,WindDirectionDegrees,WindSpeedMPH,WindSpeedGustMPH,Humidity,HourlyPrecipIn,Conditions,Clouds,dailyrainin,SoftwareType,DateUTC
2013-06-05 00:01:00,65.0,63.0,29.97,NNE,22,0.0,0.0,94,0.00,,,0.00,Rainwise IP-100,2013-06-05 05:01:00,
2013-06-05 00:06:00,65.0,63.5,29.97,WNW,292,2.0,4.0,95,0.00,,,0.00,Rainwise IP-100,2013-06-05 05:06:00,
2013-06-05 00:11:00,65.0,63.5,29.97,WNW,292,0.0,2.0,95,0.00,,,0.00,Rainwise IP-100,2013-06-05 05:11:00,
2013-06-05 00:16:00,65.0,63.5,29.97,WNW,292,0.0,0.0,95,0.00,,,0.00,Rainwise IP-100,2013-06-05 05:16:00,
2013-06-05 00:21:00,65.0,64.0,29.97,WNW,292,0.0,1.0,96,0.00,,,0.00,Rainwise IP-100,2013-06-05 05:21:00,
2013-06-05 00:26:00,65.0,64.0,29.97,North,360,0.0,4.0,97,0.00,,,0.00,Rainwise IP-100,2013-06-05 05:26:00,
2013-06-05 00:31:00,65.0,64.0,29.97,WNW,292,4.0,4.0,97,0.00,,,0.00,Rainwise IP-100,2013-06-05 05:31:00,
2013-06-05 00:36:00,65.0,64.5,29.96,WSW,247,1.0,5.0,98,0.00,,,0.00,Rainwise IP-100,2013-06-05 05:36:00,
2013-06-05 00:41:00,64.0,63.0,29.96,WSW,247,0.0,3.0,97,0.00,,,0.00,Rainwise IP-100,2013-06-05 05:41:00,
2013-06-05 00:46:00,65.0,64.5,29.96,West,270,2.0,4.0,98,0.00,,,0.00,Rainwise IP-100,2013-06-05 05:46:00,
2013-06-05 00:51:00,64.0,63.0,29.96,West,270,1.0,4.0,97,0.00,,,0.00,Rainwise IP-100,2013-06-05 05:51:00,
2013-06-05 00:56:00,64.0,63.0,29.96,West,270,0.0,3.0,97,0.00,,,0.00,Rainwise IP-100,2013-06-05 05:56:00,
2013-06-05 01:01:00,64.0,63.0,29.96,NW,315,2.0,4.0,97,0.00,,,0.00,Rainwise IP-100,2013-06-05 06:01:00,
2013-06-05 01:06:00,64.0,63.0,29.96,NW,315,2.0,4.0,97,0.00,,,0.00,Rainwise IP-100,2013-06-05 06:06:00,
2013-06-05 01:11:00,64.0,63.0,29.96,NW,315,1.0,4.0,97,0.00,,,0.00,Rainwise IP-100,2013-06-05 06:11:00,
2013-06-05 01:16:00,64.0,63.0,29.95,NW,315,2.0,4.0,97,0.00,,,0.00,Rainwise IP-100,2013-06-05 06:16:00,
2013-06-05 01:21:00,64.0,63.0,29.95,NNW,337,3.0,5.0,96,0.00,,,0.00,Rainwise IP-100,2013-06-05 06:21:00,
2013-06-05 01:26:00,64.0,62.5,29.95,NNE,22,2.0,4.0,95,0.00,,,0.00,Rainwise IP-100,2013-06-05 06:26:00,
2013-06-05 01:31:00,64.0,62.0,29.95,NNW,337,2.0,6.0,94,0.00,,,0.00,Rainwise IP-100,2013-06-05 06:31:00,
2013-06-05 01:36:00,65.0,63.0,29.95,North,360,6.0,6.0,93,0.00,,,0.00,Rainwise IP-100,2013-06-05 06:36:00,
2013-06-05 01:41:00,65.0,62.5,29.95,North,360,3.0,6.0,92,0.00,,,0.00,Rainwise IP-100,2013-06-05 06:41:00,
2013-06-05 01:46:00,65.0,62.5,29.94,NNE,22,2.0,7.0,92,0.00,,,0.00,Rainwise IP-100,2013-06-05 06:46:00,
2013-06-05 01:51:00,65.0,62.5,29.94,North,360,5.0,5.0,92,0.00,,,0.00,Rainwise IP-100,2013-06-05 06:51:00,
2013-06-05 01:56:00,65.0,62.5,29.94,North,360,3.0,5.0,92,0.00,,,0.00,Rainwise IP-100,2013-06-05 06:56:00,
2013-06-05 02:01:00,65.0,62.5,29.94,NW,315,0.0,6.0,92,0.00,,,0.00,Rainwise IP-100,2013-06-05 07:01:00,
2013-06-05 02:06:00,65.0,62.0,29.94,NNE,22,3.0,6.0,91,0.00,,,0.00,Rainwise IP-100,2013-06-05 07:06:00,
2013-06-05 02:11:00,65.0,62.0,29.94,North,360,3.0,6.0,91,0.00,,,0.00,Rainwise IP-100,2013-06-05 07:11:00,
2013-06-05 02:16:00,65.0,62.0,29.94,North,360,1.0,6.0,90,0.00,,,0.00,Rainwise IP-100,2013-06-05 07:16:00,
2013-06-05 02:21:00,65.0,62.0,29.94,NNW,337,1.0,5.0,91,0.00,,,0.00,Rainwise IP-100,2013-06-05 07:21:00,
2013-06-05 02:26:00,65.0,62.0,29.94,North,360,4.0,5.0,90,0.00,,,0.00,Rainwise IP-100,2013-06-05 07:26:00,
2013-06-05 02:31:00,65.0,62.0,29.94,North,360,2.0,6.0,90,0.00,,,0.00,Rainwise IP-100,2013-06-05 07:31:00,
2013-06-05 02:36:00,65.0,62.0,29.94,NE,45,2.0,6.0,91,0.00,,,0.00,Rainwise IP-100,2013-06-05 07:36:00,
2013-06-05 02:41:00,65.0,62.0,29.94,NE,45,1.0,5.0,91,0.00,,,0.00,Rainwise IP-100,2013-06-05 07:41:00,
2013-06-05 02:46:00,65.0,62.0,29.94,NE,45,6.0,6.0,90,0.00,,,0.00,Rainwise IP-100,2013-06-05 07:46:00,
2013-06-05 02:51:00,65.0,62.0,29.94,NE,45,5.0,7.0,90,0.00,,,0.00,Rainwise IP-100,2013-06-05 07:51:00,
2013-06-05 02:56:00,66.0,63.0,29.94,NNW,337,3.0,5.0,90,0.00,,,0.00,Rainwise IP-100,2013-06-05 07:56:00,
2013-06-05 03:01:00,65.0,62.0,29.94,NE,45,2.0,6.0,90,0.00,,,0.00,Rainwise IP-100,2013-06-05 08:01:00,
2013-06-05 03:06:00,66.0,63.0,29.93,NNW,337,3.0,4.0,90,0.00,,,0.00,Rainwise IP-100,2013-06-05 08:06:00,
2013-06-05 03:11:00,65.0,62.0,29.93,North,360,4.0,5.0,90,0.00,,,0.00,Rainwise IP-100,2013-06-05 08:11:00,
2013-06-05 03:16:00,65.0,62.0,29.94,NE,45,0.0,5.0,90,0.00,,,0.00,Rainwise IP-100,2013-06-05 08:16:00,
2013-06-05 03:21:00,65.0,62.0,29.94,NE,45,0.0,0.0,91,0.00,,,0.00,Rainwise IP-100,2013-06-05 08:21:00,
2013-06-05 03:26:00,65.0,62.0,29.94,NE,45,0.0,0.0,91,0.00,,,0.00,Rainwise IP-100,2013-06-05 08:26:00,
2013-06-05 03:31:00,65.0,62.0,29.94,NE,45,0.0,0.0,91,0.00,,,0.00,Rainwise IP-100,2013-06-05 08:31:00,
2013-06-05 03:36:00,65.0,62.0,29.94,NE,45,0.0,0.0,91,0.00,,,0.00,Rainwise IP-100,2013-06-05 08:36:00,
2013-06-05 03:41:00,65.0,62.0,29.94,NE,45,1.0,3.0,91,0.00,,,0.00,Rainwise IP-100,2013-06-05 08:41:00,
2013-06-05 03:46:00,65.0,62.0,29.94,NE,45,0.0,3.0,91,0.00,,,0.00,Rainwise IP-100,2013-06-05 08:46:00,
2013-06-05 03:51:00,65.0,62.0,29.94,NE,45,0.0,2.0,91,0.00,,,0.00,Rainwise IP-100,2013-06-05 08:51:00,
2013-06-05 03:56:00,65.0,62.0,29.94,NE,45,0.0,0.0,91,0.00,,,0.00,Rainwise IP-100,2013-06-05 08:56:00,
2013-06-05 04:01:00,65.0,62.0,29.94,NE,45,0.0,0.0,91,0.00,,,0.00,Rainwise IP-100,2013-06-05 09:01:00,
2013-06-05 04:06:00,65.0,62.5,29.94,NE,45,0.0,0.0,92,0.00,,,0.00,Rainwise IP-100,2013-06-05 09:06:00,
2013-06-05 04:11:00,65.0,63.0,29.94,NE,45,0.0,4.0,93,0.00,,,0.00,Rainwise IP-100,2013-06-05 09:11:00,
2013-06-05 04:16:00,65.0,63.0,29.94,NE,45,0.0,0.0,93,0.00,,,0.00,Rainwise IP-100,2013-06-05 09:16:00,
2013-06-05 04:21:00,65.0,63.0,29.94,NE,45,0.0,0.0,93,0.00,,,0.00,Rainwise IP-100,2013-06-05 09:21:00,
2013-06-05 04:26:00,65.0,63.0,29.94,NE,45,0.0,0.0,93,0.00,,,0.00,Rainwise IP-100,2013-06-05 09:26:00,
2013-06-05 04:31:00,65.0,63.0,29.94,NE,45,0.0,0.0,94,0.00,,,0.00,Rainwise IP-100,2013-06-05 09:31:00,
2013-06-05 04:32:00,65.0,63.0,29.94,NE,45,0.0,0.0,94,0.00,,,0.00,Rainwise IP-100,2013-06-05 09:32:00,
2013-06-05 04:37:00,65.0,63.0,29.94,NE,45,0.0,0.0,94,0.00,,,0.00,Rainwise IP-100,2013-06-05 09:37:00,
2013-06-05 04:42:00,65.0,63.5,29.94,NE,45,0.0,0.0,95,0.00,,,0.00,Rainwise IP-100,2013-06-05 09:42:00,
2013-06-05 04:46:00,65.0,63.5,29.94,NE,45,0.0,0.0,95,0.00,,,0.00,Rainwise IP-100,2013-06-05 09:46:00,
2013-06-05 04:51:00,65.0,64.0,29.94,NE,45,0.0,0.0,96,0.00,,,0.00,Rainwise IP-100,2013-06-05 09:51:00,
2013-06-05 04:56:00,65.0,64.0,29.95,NE,45,0.0,2.0,96,0.00,,,0.00,Rainwise IP-100,2013-06-05 09:56:00,
2013-06-05 05:01:00,65.0,64.0,29.95,NE,45,0.0,0.0,96,0.00,,,0.00,Rainwise IP-100,2013-06-05 10:01:00,
2013-06-05 05:06:00,65.0,64.0,29.95,NE,45,0.0,0.0,96,0.00,,,0.00,Rainwise IP-100,2013-06-05 10:06:00,
2013-06-05 05:11:00,64.0,62.5,29.95,NE,45,0.0,0.0,95,0.00,,,0.00,Rainwise IP-100,2013-06-05 10:11:00,
2013-06-05 05:16:00,64.0,62.5,29.95,NE,45,0.0,0.0,95,0.00,,,0.00,Rainwise IP-100,2013-06-05 10:16:00,
2013-06-05 05:21:00,64.0,62.5,29.95,NNW,337,1.0,0.0,95,0.00,,,0.00,Rainwise IP-100,2013-06-05 10:21:00,
2013-06-05 05:26:00,64.0,62.5,29.95,NW,315,0.0,2.0,95,0.00,,,0.00,Rainwise IP-100,2013-06-05 10:26:00,
2013-06-05 05:31:00,64.0,62.5,29.95,NW,315,0.0,0.0,95,0.00,,,0.00,Rainwise IP-100,2013-06-05 10:31:00,
2013-06-05 05:36:00,64.0,62.5,29.95,North,360,0.0,4.0,95,0.00,,,0.00,Rainwise IP-100,2013-06-05 10:36:00,
2013-06-05 05:41:00,64.0,62.5,29.95,North,360,0.0,2.0,95,0.00,,,0.00,Rainwise IP-100,2013-06-05 10:41:00,
2013-06-05 05:46:00,64.0,62.5,29.95,North,360,0.0,2.0,95,0.00,,,0.00,Rainwise IP-100,2013-06-05 10:46:00,
2013-06-05 05:51:00,64.0,62.5,29.95,WNW,292,0.0,1.0,95,0.00,,,0.00,Rainwise IP-100,2013-06-05 10:51:00,
2013-06-05 05:56:00,64.0,62.5,29.95,WNW,292,0.0,0.0,95,0.00,,,0.00,Rainwise IP-100,2013-06-05 10:56:00,
2013-06-05 06:01:00,64.0,62.5,29.95,NW,315,0.0,0.0,95,0.00,,,0.00,Rainwise IP-100,2013-06-05 11:01:00,
2013-06-05 06:06:00,64.0,62.5,29.95,NW,315,0.0,0.0,95,0.00,,,0.00,Rainwise IP-100,2013-06-05 11:06:00,
2013-06-05 06:11:00,64.0,63.0,29.95,NNE,22,1.0,4.0,96,0.00,,,0.00,Rainwise IP-100,2013-06-05 11:11:00,
2013-06-05 06:16:00,64.0,63.0,29.95,NNE,22,0.0,3.0,96,0.00,,,0.00,Rainwise IP-100,2013-06-05 11:16:00,
2013-06-05 06:21:00,64.0,63.0,29.95,ENE,67,3.0,3.0,96,0.00,,,0.00,Rainwise IP-100,2013-06-05 11:21:00,
2013-06-05 06:26:00,65.0,64.0,29.94,ENE,67,1.0,3.0,97,0.00,,,0.00,Rainwise IP-100,2013-06-05 11:26:00,
2013-06-05 06:32:00,65.0,64.0,29.94,ENE,67,1.0,2.0,97,0.00,,,0.00,Rainwise IP-100,2013-06-05 11:32:00,
2013-06-05 06:37:00,65.0,64.0,29.95,ENE,67,0.0,2.0,97,0.00,,,0.00,Rainwise IP-100,2013-06-05 11:37:00,
2013-06-05 06:42:00,65.0,64.0,29.95,NE,45,3.0,4.0,97,0.00,,,0.00,Rainwise IP-100,2013-06-05 11:42:00,
2013-06-05 06:47:00,66.0,64.5,29.95,NE,45,6.0,6.0,95,0.00,,,0.00,Rainwise IP-100,2013-06-05 11:47:00,
2013-06-05 06:52:00,66.0,64.0,29.95,ENE,67,3.0,7.0,94,0.00,,,0.00,Rainwise IP-100,2013-06-05 11:52:00,
2013-06-05 06:57:00,67.0,64.5,29.94,NE,45,3.0,5.0,91,0.00,,,0.00,Rainwise IP-100,2013-06-05 11:57:00,
2013-06-05 07:02:00,66.0,62.5,29.94,NE,45,5.0,7.0,89,0.00,,,0.00,Rainwise IP-100,2013-06-05 12:02:00,
2013-06-05 07:07:00,68.0,64.5,29.94,NE,45,1.0,7.0,88,0.00,,,0.00,Rainwise IP-100,2013-06-05 12:07:00,
2013-06-05 07:12:00,67.0,63.0,29.94,NE,45,4.0,9.0,87,0.00,,,0.00,Rainwise IP-100,2013-06-05 12:12:00,
2013-06-05 07:17:00,68.0,63.5,29.95,NE,45,4.0,6.0,85,0.00,,,0.00,Rainwise IP-100,2013-06-05 12:17:00,
2013-06-05 07:22:00,68.0,62.5,29.95,East,90,2.0,6.0,83,0.00,,,0.00,Rainwise IP-100,2013-06-05 12:22:00,
2013-06-05 07:27:00,68.0,62.5,29.95,NE,45,5.0,8.0,83,0.00,,,0.00,Rainwise IP-100,2013-06-05 12:27:00,
2013-06-05 07:32:00,69.0,63.5,29.95,East,90,2.0,8.0,83,0.00,,,0.00,Rainwise IP-100,2013-06-05 12:32:00,
2013-06-05 07:37:00,69.0,63.5,29.94,NE,45,5.0,9.0,83,0.00,,,0.00,Rainwise IP-100,2013-06-05 12:37:00,
2013-06-05 07:42:00,69.0,63.0,29.94,NE,45,6.0,6.0,81,0.00,,,0.00,Rainwise IP-100,2013-06-05 12:42:00,
2013-06-05 07:47:00,70.0,63.5,29.94,ENE,67,4.0,7.0,80,0.00,,,0.00,Rainwise IP-100,2013-06-05 12:47:00,
2013-06-05 07:52:00,70.0,63.0,29.94,NE,45,3.0,6.0,78,0.00,,,0.00,Rainwise IP-100,2013-06-05 12:52:00,
2013-06-05 07:57:00,71.0,63.5,29.94,NE,45,4.0,6.0,77,0.00,,,0.00,Rainwise IP-100,2013-06-05 12:57:00,
2013-06-05 08:02:00,71.0,63.0,29.94,NE,45,3.0,5.0,76,0.00,,,0.00,Rainwise IP-100,2013-06-05 13:02:00,
2013-06-05 08:07:00,71.0,62.5,29.95,NE,45,4.0,6.0,75,0.00,,,0.00,Rainwise IP-100,2013-06-05 13:07:00,
2013-06-05 08:12:00,71.0,62.5,29.95,ENE,67,2.0,6.0,75,0.00,,,0.00,Rainwise IP-100,2013-06-05 13:12:00,
2013-06-05 08:17:00,72.0,63.5,29.94,NE,45,1.0,6.0,75,0.00,,,0.00,Rainwise IP-100,2013-06-05 13:17:00,
2013-06-05 08:22:00,73.0,64.5,29.94,SE,135,1.0,6.0,74,0.00,,,0.00,Rainwise IP-100,2013-06-05 13:22:00,
2013-06-05 08:27:00,74.0,64.5,29.93,North,360,2.0,6.0,72,0.00,,,0.00,Rainwise IP-100,2013-06-05 13:27:00,
2013-06-05 08:32:00,74.0,64.0,29.93,NE,45,5.0,6.0,71,0.00,,,0.00,Rainwise IP-100,2013-06-05 13:32:00,
2013-06-05 08:37:00,75.0,65.0,29.92,NE,45,4.0,6.0,71,0.00,,,0.00,Rainwise IP-100,2013-06-05 13:37:00,
2013-06-05 08:42:00,75.0,65.0,29.92,East,90,3.0,6.0,70,0.00,,,0.00,Rainwise IP-100,2013-06-05 13:42:00,
2013-06-05 08:47:00,76.0,65.5,29.92,NE,45,4.0,6.0,70,0.00,,,0.00,Rainwise IP-100,2013-06-05 13:47:00,
2013-06-05 08:52:00,76.0,65.0,29.92,NE,45,0.0,5.0,69,0.00,,,0.00,Rainwise IP-100,2013-06-05 13:52:00,
2013-06-05 08:57:00,77.0,65.0,29.92,ENE,67,3.0,4.0,66,0.00,,,0.00,Rainwise IP-100,2013-06-05 13:57:00,
2013-06-05 09:02:00,77.0,65.5,29.92,NE,45,5.0,5.0,67,0.00,,,0.00,Rainwise IP-100,2013-06-05 14:02:00,
2013-06-05 09:07:00,78.0,66.3,29.92,ENE,67,4.0,6.0,67,0.00,,,0.00,Rainwise IP-100,2013-06-05 14:07:00,
2013-06-05 09:12:00,77.0,64.0,29.92,NE,45,4.0,4.0,64,0.00,,,0.00,Rainwise IP-100,2013-06-05 14:12:00,
2013-06-05 09:17:00,78.0,65.0,29.93,NNE,22,1.0,6.0,64,0.00,,,0.00,Rainwise IP-100,2013-06-05 14:17:00,
2013-06-05 09:22:00,79.0,66.0,29.93,ENE,67,4.0,6.0,64,0.00,,,0.00,Rainwise IP-100,2013-06-05 14:22:00,
2013-06-05 09:27:00,80.0,66.0,29.92,ENE,67,0.0,5.0,62,0.00,,,0.00,Rainwise IP-100,2013-06-05 14:27:00,
2013-06-05 09:32:00,79.0,65.5,29.92,ENE,67,2.0,6.0,63,0.00,,,0.00,Rainwise IP-100,2013-06-05 14:32:00,
2013-06-05 09:37:00,78.0,64.0,29.93,NE,45,4.0,6.0,62,0.00,,,0.00,Rainwise IP-100,2013-06-05 14:37:00,
2013-06-05 09:42:00,80.0,66.3,29.93,NE,45,0.0,6.0,63,0.00,,,0.00,Rainwise IP-100,2013-06-05 14:42:00,
2013-06-05 09:47:00,82.0,67.0,29.91,WSW,247,1.0,4.0,61,0.00,,,0.00,Rainwise IP-100,2013-06-05 14:47:00,
2013-06-05 09:52:00,81.0,66.7,29.91,West,270,0.0,6.0,62,0.00,,,0.00,Rainwise IP-100,2013-06-05 14:52:00,
2013-06-05 09:57:00,82.0,66.7,29.91,ESE,112,2.0,4.0,60,0.00,,,0.00,Rainwise IP-100,2013-06-05 14:57:00,
2013-06-05 10:02:00,83.0,66.7,29.91,SE,135,2.0,5.0,58,0.00,,,0.00,Rainwise IP-100,2013-06-05 15:02:00,
2013-06-05 10:07:00,82.0,66.0,29.92,South,180,2.0,4.0,58,0.00,,,0.00,Rainwise IP-100,2013-06-05 15:07:00,
2013-06-05 10:12:00,80.0,66.0,29.92,East,90,0.0,6.0,62,0.00,,,0.00,Rainwise IP-100,2013-06-05 15:12:00,
2013-06-05 10:17:00,81.0,66.0,29.93,SE,135,2.0,6.0,60,0.00,,,0.00,Rainwise IP-100,2013-06-05 15:17:00,
2013-06-05 10:22:00,80.0,65.5,29.93,SW,225,1.0,6.0,61,0.00,,,0.00,Rainwise IP-100,2013-06-05 15:22:00,
2013-06-05 10:27:00,81.0,64.5,29.92,SSE,157,4.0,6.0,57,0.00,,,0.00,Rainwise IP-100,2013-06-05 15:27:00,
2013-06-05 10:32:00,81.0,65.0,29.92,SW,225,1.0,6.0,58,0.00,,,0.00,Rainwise IP-100,2013-06-05 15:32:00,
2013-06-05 10:37:00,82.0,64.5,29.92,South,180,1.0,5.0,55,0.00,,,0.00,Rainwise IP-100,2013-06-05 15:37:00,
2013-06-05 10:42:00,83.0,65.5,29.92,South,180,3.0,6.0,55,0.00,,,0.00,Rainwise IP-100,2013-06-05 15:42:00,
2013-06-05 10:47:00,83.0,65.0,29.92,SE,135,1.0,4.0,54,0.00,,,0.00,Rainwise IP-100,2013-06-05 15:47:00,
2013-06-05 10:52:00,84.0,66.0,29.92,NW,315,0.0,5.0,54,0.00,,,0.00,Rainwise IP-100,2013-06-05 15:52:00,
2013-06-05 10:57:00,81.0,63.5,29.93,SW,225,4.0,8.0,55,0.00,,,0.00,Rainwise IP-100,2013-06-05 15:57:00,
2013-06-05 11:02:00,82.0,63.0,29.93,SW,225,2.0,5.0,53,0.00,,,0.00,Rainwise IP-100,2013-06-05 16:02:00,
2013-06-05 11:07:00,82.0,61.5,29.93,SW,225,2.0,5.0,50,0.00,,,0.00,Rainwise IP-100,2013-06-05 16:07:00,
2013-06-05 11:12:00,84.0,63.0,29.93,East,90,2.0,4.0,49,0.00,,,0.00,Rainwise IP-100,2013-06-05 16:12:00,
2013-06-05 11:17:00,84.0,63.5,29.91,SE,135,0.0,6.0,50,0.00,,,0.00,Rainwise IP-100,2013-06-05 16:17:00,
2013-06-05 11:22:00,84.0,63.0,29.91,NE,45,1.0,6.0,49,0.00,,,0.00,Rainwise IP-100,2013-06-05 16:22:00,
2013-06-05 11:27:00,84.0,60.5,29.91,ENE,67,4.0,6.0,45,0.00,,,0.00,Rainwise IP-100,2013-06-05 16:27:00,
2013-06-05 11:32:00,83.0,61.0,29.91,ENE,67,4.0,8.0,47,0.00,,,0.00,Rainwise IP-100,2013-06-05 16:32:00,
2013-06-05 11:37:00,82.0,60.5,29.92,NE,45,5.0,7.0,48,0.00,,,0.00,Rainwise IP-100,2013-06-05 16:37:00,
2013-06-05 11:42:00,84.0,62.5,29.92,ENE,67,4.0,6.0,48,0.00,,,0.00,Rainwise IP-100,2013-06-05 16:42:00,
2013-06-05 11:47:00,85.0,62.0,29.90,ENE,67,1.0,6.0,46,0.00,,,0.00,Rainwise IP-100,2013-06-05 16:47:00,
2013-06-05 11:52:00,85.0,62.5,29.90,South,180,3.0,5.0,47,0.00,,,0.00,Rainwise IP-100,2013-06-05 16:52:00,
2013-06-05 11:57:00,85.0,63.0,29.90,ENE,67,1.0,6.0,48,0.00,,,0.00,Rainwise IP-100,2013-06-05 16:57:00,
2013-06-05 12:02:00,86.0,65.5,29.90,SW,225,1.0,6.0,50,0.00,,,0.00,Rainwise IP-100,2013-06-05 17:02:00,
2013-06-05 12:07:00,87.0,62.5,29.88,NE,45,3.0,6.0,44,0.00,,,0.00,Rainwise IP-100,2013-06-05 17:07:00,
2013-06-05 12:12:00,85.0,60.5,29.88,ENE,67,4.0,7.0,44,0.00,,,0.00,Rainwise IP-100,2013-06-05 17:12:00,
2013-06-05 12:17:00,85.0,60.5,29.89,East,90,2.0,7.0,44,0.00,,,0.00,Rainwise IP-100,2013-06-05 17:17:00,
2013-06-05 12:22:00,86.0,61.0,29.89,SW,225,3.0,5.0,43,0.00,,,0.00,Rainwise IP-100,2013-06-05 17:22:00,
2013-06-05 12:27:00,86.0,59.0,29.88,WNW,292,6.0,6.0,40,0.00,,,0.00,Rainwise IP-100,2013-06-05 17:27:00,
2013-06-05 12:32:00,85.0,59.5,29.88,West,270,3.0,6.0,42,0.00,,,0.00,Rainwise IP-100,2013-06-05 17:32:00,
2013-06-05 12:37:00,85.0,59.0,29.89,SW,225,2.0,6.0,41,0.00,,,0.00,Rainwise IP-100,2013-06-05 17:37:00,
2013-06-05 12:42:00,86.0,59.5,29.89,NNE,22,0.0,3.0,41,0.00,,,0.00,Rainwise IP-100,2013-06-05 17:42:00,
2013-06-05 12:47:00,87.0,61.5,29.87,ENE,67,2.0,5.0,43,0.00,,,0.00,Rainwise IP-100,2013-06-05 17:47:00,
2013-06-05 12:52:00,87.0,60.5,29.87,NE,45,2.0,5.0,41,0.00,,,0.00,Rainwise IP-100,2013-06-05 17:52:00,
2013-06-05 12:57:00,85.0,60.0,29.87,ENE,67,3.0,7.0,43,0.00,,,0.00,Rainwise IP-100,2013-06-05 17:57:00,
2013-06-05 13:02:00,84.0,59.5,29.87,NE,45,5.0,7.0,43,0.00,,,0.00,Rainwise IP-100,2013-06-05 18:02:00,
2013-06-05 13:07:00,85.0,59.5,29.87,ENE,67,4.0,6.0,42,0.00,,,0.00,Rainwise IP-100,2013-06-05 18:07:00,
2013-06-05 13:12:00,86.0,60.5,29.87,East,90,1.0,6.0,42,0.00,,,0.00,Rainwise IP-100,2013-06-05 18:12:00,
2013-06-05 13:17:00,87.0,61.0,29.86,South,180,2.0,5.0,42,0.00,,,0.00,Rainwise IP-100,2013-06-05 18:17:00,
2013-06-05 13:22:00,86.0,60.5,29.86,West,270,4.0,6.0,42,0.00,,,0.00,Rainwise IP-100,2013-06-05 18:22:00,
2013-06-05 13:27:00,86.0,60.5,29.86,SE,135,3.0,6.0,42,0.00,,,0.00,Rainwise IP-100,2013-06-05 18:27:00,
2013-06-05 13:32:00,84.0,60.0,29.86,SSW,202,3.0,7.0,44,0.00,,,0.00,Rainwise IP-100,2013-06-05 18:32:00,
2013-06-05 13:37:00,87.0,61.5,29.85,NW,315,0.0,6.0,43,0.00,,,0.00,Rainwise IP-100,2013-06-05 18:37:00,
2013-06-05 13:42:00,88.0,61.0,29.85,South,180,1.0,6.0,40,0.00,,,0.00,Rainwise IP-100,2013-06-05 18:42:00,
2013-06-05 13:47:00,87.0,59.0,29.85,NE,45,5.0,7.0,39,0.00,,,0.00,Rainwise IP-100,2013-06-05 18:47:00,
2013-06-05 13:52:00,87.0,59.0,29.85,East,90,4.0,6.0,39,0.00,,,0.00,Rainwise IP-100,2013-06-05 18:52:00,
2013-06-05 13:57:00,89.0,61.5,29.83,SE,135,0.0,7.0,40,0.00,,,0.00,Rainwise IP-100,2013-06-05 18:57:00,
2013-06-05 14:02:00,89.0,59.5,29.83,South,180,1.0,6.0,37,0.00,,,0.00,Rainwise IP-100,2013-06-05 19:02:00,
2013-06-05 14:07:00,89.0,63.0,29.83,SW,225,2.0,5.0,42,0.00,,,0.00,Rainwise IP-100,2013-06-05 19:07:00,
2013-06-05 14:12:00,87.0,57.5,29.83,South,180,4.0,6.0,37,0.00,,,0.00,Rainwise IP-100,2013-06-05 19:12:00,
2013-06-05 14:17:00,89.0,60.0,29.83,NE,45,0.0,5.0,38,0.00,,,0.00,Rainwise IP-100,2013-06-05 19:17:00,
2013-06-05 14:22:00,86.0,59.5,29.83,SW,225,6.0,6.0,41,0.00,,,0.00,Rainwise IP-100,2013-06-05 19:22:00,
2013-06-05 14:27:00,86.0,59.0,29.84,East,90,6.0,6.0,40,0.00,,,0.00,Rainwise IP-100,2013-06-05 19:27:00,
2013-06-05 14:32:00,88.0,63.0,29.84,SSE,157,0.0,6.0,43,0.00,,,0.00,Rainwise IP-100,2013-06-05 19:32:00,
2013-06-05 14:37:00,88.0,62.0,29.83,WSW,247,2.0,6.0,42,0.00,,,0.00,Rainwise IP-100,2013-06-05 19:37:00,
2013-06-05 14:42:00,88.0,62.0,29.83,SW,225,0.0,7.0,42,0.00,,,0.00,Rainwise IP-100,2013-06-05 19:42:00,
2013-06-05 14:47:00,89.0,63.0,29.82,NW,315,2.0,7.0,42,0.00,,,0.00,Rainwise IP-100,2013-06-05 19:47:00,
2013-06-05 14:52:00,86.0,61.0,29.82,West,270,3.0,7.0,43,0.00,,,0.00,Rainwise IP-100,2013-06-05 19:52:00,
2013-06-05 14:57:00,88.0,63.5,29.82,NW,315,0.0,5.0,44,0.00,,,0.00,Rainwise IP-100,2013-06-05 19:57:00,
2013-06-05 15:02:00,88.0,61.5,29.82,NE,45,6.0,6.0,41,0.00,,,0.00,Rainwise IP-100,2013-06-05 20:02:00,
2013-06-05 15:07:00,85.0,57.5,29.83,NE,45,6.0,6.0,40,0.00,,,0.00,Rainwise IP-100,2013-06-05 20:07:00,
2013-06-05 15:12:00,88.0,62.0,29.83,East,90,2.0,6.0,42,0.00,,,0.00,Rainwise IP-100,2013-06-05 20:12:00,
2013-06-05 15:17:00,89.0,60.0,29.81,East,90,2.0,5.0,38,0.00,,,0.00,Rainwise IP-100,2013-06-05 20:17:00,
2013-06-05 15:22:00,88.0,60.0,29.81,ESE,112,0.0,5.0,39,0.00,,,0.00,Rainwise IP-100,2013-06-05 20:22:00,
2013-06-05 15:27:00,88.0,60.0,29.81,ESE,112,0.0,6.0,39,0.00,,,0.00,Rainwise IP-100,2013-06-05 20:27:00,
2013-06-05 15:32:00,87.0,61.0,29.81,SW,225,3.0,7.0,42,0.00,,,0.00,Rainwise IP-100,2013-06-05 20:32:00,
2013-06-05 15:37:00,87.0,60.0,29.81,SW,225,3.0,5.0,40,0.00,,,0.00,Rainwise IP-100,2013-06-05 20:37:00,
2013-06-05 15:42:00,88.0,61.0,29.81,WNW,292,4.0,6.0,40,0.00,,,0.00,Rainwise IP-100,2013-06-05 20:42:00,
2013-06-05 15:47:00,89.0,63.0,29.80,WSW,247,3.0,6.0,42,0.00,,,0.00,Rainwise IP-100,2013-06-05 20:47:00,
2013-06-05 15:52:00,89.0,61.5,29.80,SW,225,0.0,4.0,40,0.00,,,0.00,Rainwise IP-100,2013-06-05 20:52:00,
2013-06-05 15:57:00,88.0,62.0,29.81,West,270,3.0,6.0,42,0.00,,,0.00,Rainwise IP-100,2013-06-05 20:57:00,
2013-06-05 16:02:00,89.0,61.5,29.81,SW,225,0.0,6.0,40,0.00,,,0.00,Rainwise IP-100,2013-06-05 21:02:00,
2013-06-05 16:07:00,90.0,61.0,29.80,North,360,2.0,5.0,38,0.00,,,0.00,Rainwise IP-100,2013-06-05 21:07:00,
2013-06-05 16:12:00,89.0,59.5,29.80,NE,45,4.0,6.0,37,0.00,,,0.00,Rainwise IP-100,2013-06-05 21:12:00,
2013-06-05 16:17:00,90.0,60.5,29.80,SW,225,0.0,5.0,37,0.00,,,0.00,Rainwise IP-100,2013-06-05 21:17:00,
2013-06-05 16:22:00,88.0,61.0,29.80,SSE,157,2.0,6.0,40,0.00,,,0.00,Rainwise IP-100,2013-06-05 21:22:00,
2013-06-05 16:27:00,89.0,59.5,29.80,West,270,0.0,4.0,37,0.00,,,0.00,Rainwise IP-100,2013-06-05 21:27:00,
2013-06-05 16:32:00,89.0,61.0,29.80,West,270,0.0,4.0,39,0.00,,,0.00,Rainwise IP-100,2013-06-05 21:32:00,
2013-06-05 16:37:00,90.0,60.5,29.79,West,270,0.0,0.0,37,0.00,,,0.00,Rainwise IP-100,2013-06-05 21:37:00,
2013-06-05 16:42:00,90.0,59.5,29.79,North,360,0.0,3.0,36,0.00,,,0.00,Rainwise IP-100,2013-06-05 21:42:00,
2013-06-05 16:47:00,90.0,59.5,29.79,NE,45,1.0,4.0,36,0.00,,,0.00,Rainwise IP-100,2013-06-05 21:47:00,
2013-06-05 16:52:00,91.0,62.0,29.79,NE,45,0.0,1.0,38,0.00,,,0.00,Rainwise IP-100,2013-06-05 21:52:00,
2013-06-05 16:57:00,90.0,63.0,29.79,SW,225,2.0,4.0,41,0.00,,,0.00,Rainwise IP-100,2013-06-05 21:57:00,
2013-06-05 17:02:00,89.0,59.5,29.79,SW,225,0.0,4.0,37,0.00,,,0.00,Rainwise IP-100,2013-06-05 22:02:00,
2013-06-05 17:07:00,89.0,60.0,29.79,South,180,1.0,2.0,38,0.00,,,0.00,Rainwise IP-100,2013-06-05 22:07:00,
2013-06-05 17:12:00,89.0,59.5,29.79,WSW,247,0.0,4.0,37,0.00,,,0.00,Rainwise IP-100,2013-06-05 22:12:00,
2013-06-05 17:17:00,91.0,61.0,29.77,WSW,247,0.0,0.0,37,0.00,,,0.00,Rainwise IP-100,2013-06-05 22:17:00,
2013-06-05 17:22:00,90.0,59.5,29.77,South,180,0.0,0.0,36,0.00,,,0.00,Rainwise IP-100,2013-06-05 22:22:00,
2013-06-05 17:27:00,90.0,60.5,29.78,South,180,0.0,2.0,37,0.00,,,0.00,Rainwise IP-100,2013-06-05 22:27:00,
2013-06-05 17:32:00,85.0,60.0,29.78,SE,135,2.0,6.0,43,0.00,,,0.00,Rainwise IP-100,2013-06-05 22:32:00,
2013-06-05 17:37:00,87.0,60.0,29.78,SE,135,1.0,3.0,40,0.00,,,0.00,Rainwise IP-100,2013-06-05 22:37:00,
2013-06-05 17:42:00,87.0,59.0,29.78,South,180,0.0,3.0,39,0.00,,,0.00,Rainwise IP-100,2013-06-05 22:42:00,
2013-06-05 17:47:00,87.0,60.0,29.78,SSE,157,0.0,3.0,40,0.00,,,0.00,Rainwise IP-100,2013-06-05 22:47:00,
2013-06-05 17:52:00,88.0,60.0,29.78,SSE,157,0.0,2.0,39,0.00,,,0.00,Rainwise IP-100,2013-06-05 22:52:00,
2013-06-05 17:57:00,88.0,61.0,29.77,ESE,112,3.0,3.0,40,0.00,,,0.00,Rainwise IP-100,2013-06-05 22:57:00,
2013-06-05 18:02:00,89.0,60.0,29.77,East,90,0.0,4.0,38,0.00,,,0.00,Rainwise IP-100,2013-06-05 23:02:00,
2013-06-05 18:07:00,88.0,59.5,29.77,East,90,0.0,0.0,38,0.00,,,0.00,Rainwise IP-100,2013-06-05 23:07:00,
2013-06-05 18:12:00,86.0,59.0,29.77,SE,135,1.0,3.0,40,0.00,,,0.00,Rainwise IP-100,2013-06-05 23:12:00,
2013-06-05 18:17:00,85.0,60.0,29.77,ESE,112,0.0,5.0,43,0.00,,,0.00,Rainwise IP-100,2013-06-05 23:17:00,
2013-06-05 18:22:00,84.0,59.5,29.77,SSE,157,2.0,3.0,43,0.00,,,0.00,Rainwise IP-100,2013-06-05 23:22:00,
2013-06-05 18:27:00,85.0,62.5,29.77,SSE,157,0.0,3.0,47,0.00,,,0.00,Rainwise IP-100,2013-06-05 23:27:00,
2013-06-05 18:32:00,86.0,64.5,29.77,SSE,157,0.0,0.0,49,0.00,,,0.00,Rainwise IP-100,2013-06-05 23:32:00,
2013-06-05 18:37:00,86.0,65.5,29.77,SSE,157,0.0,0.0,50,0.00,,,0.00,Rainwise IP-100,2013-06-05 23:37:00,
2013-06-05 18:42:00,86.0,64.5,29.77,SSE,157,0.0,0.0,49,0.00,,,0.00,Rainwise IP-100,2013-06-05 23:42:00,
2013-06-05 18:47:00,86.0,61.5,29.77,SSE,157,0.0,1.0,44,0.00,,,0.00,Rainwise IP-100,2013-06-05 23:47:00,
2013-06-05 18:52:00,86.0,63.0,29.77,West,270,0.0,2.0,46,0.00,,,0.00,Rainwise IP-100,2013-06-05 23:52:00,
2013-06-05 18:57:00,86.0,63.5,29.77,West,270,0.0,2.0,47,0.00,,,0.00,Rainwise IP-100,2013-06-05 23:57:00,
2013-06-05 19:02:00,85.0,64.5,29.77,West,270,1.0,2.0,50,0.00,,,0.00,Rainwise IP-100,2013-06-06 00:02:00,
2013-06-05 19:07:00,84.0,65.5,29.78,West,270,2.0,3.0,53,0.00,,,0.00,Rainwise IP-100,2013-06-06 00:07:00,
2013-06-05 19:12:00,82.0,63.5,29.78,West,270,1.0,2.0,54,0.00,,,0.00,Rainwise IP-100,2013-06-06 00:12:00,
2013-06-05 19:17:00,82.0,62.5,29.78,West,270,1.0,1.0,52,0.00,,,0.00,Rainwise IP-100,2013-06-06 00:17:00,
2013-06-05 19:22:00,81.0,62.5,29.78,West,270,1.0,2.0,53,0.00,,,0.00,Rainwise IP-100,2013-06-06 00:22:00,
2013-06-05 19:27:00,81.0,62.0,29.77,West,270,0.0,2.0,52,0.00,,,0.00,Rainwise IP-100,2013-06-06 00:27:00,
2013-06-05 19:32:00,81.0,63.5,29.77,NNE,22,0.0,1.0,55,0.00,,,0.00,Rainwise IP-100,2013-06-06 00:32:00,
2013-06-05 19:37:00,80.0,63.0,29.77,NNE,22,0.0,0.0,56,0.00,,,0.00,Rainwise IP-100,2013-06-06 00:37:00,
2013-06-05 19:42:00,79.0,63.5,29.77,WNW,292,3.0,0.0,59,0.00,,,0.00,Rainwise IP-100,2013-06-06 00:42:00,
2013-06-05 19:47:00,78.0,64.0,29.77,WNW,292,1.0,3.0,62,0.00,,,0.00,Rainwise IP-100,2013-06-06 00:47:00,
2013-06-05 19:52:00,78.0,63.0,29.79,WNW,292,0.0,1.0,60,0.00,,,0.00,Rainwise IP-100,2013-06-06 00:52:00,
2013-06-05 19:57:00,78.0,62.5,29.78,WNW,292,0.0,0.0,59,0.00,,,0.00,Rainwise IP-100,2013-06-06 00:57:00,
2013-06-05 20:02:00,78.0,63.0,29.78,NNW,337,0.0,0.0,60,0.00,,,0.00,Rainwise IP-100,2013-06-06 01:02:00,
2013-06-05 20:07:00,78.0,65.5,29.78,NNW,337,0.0,0.0,65,0.00,,,0.00,Rainwise IP-100,2013-06-06 01:07:00,
2013-06-05 20:12:00,78.0,66.0,29.78,NNW,337,0.0,0.0,66,0.00,,,0.00,Rainwise IP-100,2013-06-06 01:12:00,
2013-06-05 20:17:00,77.0,65.0,29.79,NNW,337,0.0,0.0,66,0.00,,,0.00,Rainwise IP-100,2013-06-06 01:17:00,
2013-06-05 20:22:00,77.0,66.0,29.79,NNW,337,0.0,0.0,68,0.00,,,0.00,Rainwise IP-100,2013-06-06 01:22:00,
2013-06-05 20:27:00,77.0,65.0,29.79,NNW,337,0.0,0.0,66,0.00,,,0.00,Rainwise IP-100,2013-06-06 01:27:00,
2013-06-05 20:32:00,76.0,66.7,29.79,NNW,337,1.0,2.0,73,0.00,,,0.00,Rainwise IP-100,2013-06-06 01:32:00,
2013-06-05 20:37:00,76.0,67.0,29.80,NNW,337,0.0,2.0,74,0.00,,,0.00,Rainwise IP-100,2013-06-06 01:37:00,
2013-06-05 20:42:00,76.0,66.7,29.80,NNW,337,0.0,0.0,73,0.00,,,0.00,Rainwise IP-100,2013-06-06 01:42:00,
2013-06-05 20:47:00,76.0,67.0,29.80,NW,315,2.0,3.0,74,0.00,,,0.00,Rainwise IP-100,2013-06-06 01:47:00,
2013-06-05 20:52:00,76.0,67.0,29.80,NW,315,0.0,2.0,74,0.00,,,0.00,Rainwise IP-100,2013-06-06 01:52:00,
2013-06-05 20:57:00,76.0,67.0,29.81,WSW,247,2.0,2.0,74,0.00,,,0.00,Rainwise IP-100,2013-06-06 01:57:00,
2013-06-05 21:02:00,75.0,65.0,29.81,WNW,292,3.0,6.0,70,0.00,,,0.00,Rainwise IP-100,2013-06-06 02:02:00,
2013-06-05 21:07:00,74.0,67.0,29.81,NW,315,2.0,7.0,79,0.18,,,0.03,Rainwise IP-100,2013-06-06 02:07:00,
2013-06-05 21:12:00,71.0,66.0,29.81,NW,315,4.0,6.0,84,0.24,,,0.04,Rainwise IP-100,2013-06-06 02:12:00,
2013-06-05 21:17:00,71.0,66.7,29.82,West,270,2.0,7.0,87,0.06,,,0.04,Rainwise IP-100,2013-06-06 02:17:00,
2013-06-05 21:23:00,70.0,66.3,29.82,ENE,67,1.0,6.0,88,0.00,,,0.04,Rainwise IP-100,2013-06-06 02:23:00,
2013-06-05 21:28:00,71.0,67.5,29.82,NNE,22,4.0,7.0,90,0.00,,,0.04,Rainwise IP-100,2013-06-06 02:28:00,
2013-06-05 21:33:00,70.0,68.0,29.82,NNE,22,2.0,9.0,93,0.00,,,0.04,Rainwise IP-100,2013-06-06 02:33:00,
2013-06-05 21:38:00,70.0,68.0,29.82,NE,45,7.0,12.0,93,0.00,,,0.04,Rainwise IP-100,2013-06-06 02:38:00,
2013-06-05 21:43:00,69.0,66.7,29.82,NE,45,7.0,11.0,93,0.00,,,0.04,Rainwise IP-100,2013-06-06 02:43:00,
2013-06-05 21:48:00,70.0,67.5,29.81,ENE,67,7.0,12.0,92,0.00,,,0.04,Rainwise IP-100,2013-06-06 02:48:00,
2013-06-05 21:53:00,69.0,66.3,29.81,NE,45,8.0,12.0,92,0.00,,,0.04,Rainwise IP-100,2013-06-06 02:53:00,
2013-06-05 21:58:00,70.0,67.5,29.81,NE,45,8.0,12.0,92,0.00,,,0.04,Rainwise IP-100,2013-06-06 02:58:00,
2013-06-05 22:03:00,69.0,66.3,29.81,NE,45,6.0,10.0,92,0.00,,,0.04,Rainwise IP-100,2013-06-06 03:03:00,
2013-06-05 22:08:00,69.0,66.3,29.81,NE,45,7.0,10.0,91,0.00,,,0.04,Rainwise IP-100,2013-06-06 03:08:00,
2013-06-05 22:13:00,69.0,66.3,29.81,ENE,67,2.0,9.0,92,0.00,,,0.04,Rainwise IP-100,2013-06-06 03:13:00,
2013-06-05 22:18:00,69.0,66.7,29.82,NNE,22,6.0,9.0,93,0.00,,,0.04,Rainwise IP-100,2013-06-06 03:18:00,
2013-06-05 22:23:00,69.0,66.7,29.82,NE,45,6.0,8.0,93,0.00,,,0.04,Rainwise IP-100,2013-06-06 03:23:00,
2013-06-05 22:28:00,69.0,67.0,29.82,NE,45,6.0,9.0,94,0.00,,,0.04,Rainwise IP-100,2013-06-06 03:28:00,
2013-06-05 22:33:00,69.0,67.0,29.82,ENE,67,2.0,8.0,94,0.00,,,0.04,Rainwise IP-100,2013-06-06 03:33:00,
2013-06-05 22:38:00,69.0,67.0,29.82,SSW,202,4.0,5.0,95,0.00,,,0.04,Rainwise IP-100,2013-06-06 03:38:00,
2013-06-05 22:43:00,68.0,67.0,29.82,SW,225,3.0,7.0,97,0.00,,,0.04,Rainwise IP-100,2013-06-06 03:43:00,
2013-06-05 22:48:00,68.0,67.5,29.83,SW,225,4.0,6.0,98,0.06,,,0.05,Rainwise IP-100,2013-06-06 03:48:00,
2013-06-05 22:53:00,68.0,67.5,29.83,WSW,247,6.0,6.0,99,0.06,,,0.05,Rainwise IP-100,2013-06-06 03:53:00,
2013-06-05 22:58:00,68.0,67.5,29.83,SE,135,6.0,6.0,99,0.00,,,0.05,Rainwise IP-100,2013-06-06 03:58:00,
2013-06-05 23:01:00,68.0,67.5,29.83,SW,225,0.0,8.0,99,0.30,,,0.13,Rainwise IP-100,2013-06-06 04:01:00,
2013-06-05 23:06:00,68.0,67.5,29.83,SE,135,3.0,9.0,99,0.66,,,0.17,Rainwise IP-100,2013-06-06 04:06:00,
2013-06-05 23:11:00,68.0,67.5,29.82,ENE,67,1.0,10.0,99,0.24,,,0.17,Rainwise IP-100,2013-06-06 04:11:00,
2013-06-05 23:16:00,68.0,67.5,29.82,ESE,112,4.0,9.0,99,0.06,,,0.17,Rainwise IP-100,2013-06-06 04:16:00,
2013-06-05 23:21:00,68.0,67.5,29.81,East,90,0.0,7.0,99,0.00,,,0.17,Rainwise IP-100,2013-06-06 04:21:00,
2013-06-05 23:26:00,68.0,67.5,29.81,ENE,67,4.0,8.0,99,0.00,,,0.17,Rainwise IP-100,2013-06-06 04:26:00,
2013-06-05 23:31:00,68.0,67.5,29.80,NE,45,4.0,6.0,99,0.00,,,0.17,Rainwise IP-100,2013-06-06 04:31:00,
2013-06-05 23:36:00,68.0,67.5,29.80,ENE,67,1.0,8.0,99,0.00,,,0.17,Rainwise IP-100,2013-06-06 04:36:00,
2013-06-05 23:41:00,68.0,67.5,29.80,East,90,4.0,9.0,99,0.00,,,0.17,Rainwise IP-100,2013-06-06 04:41:00,
2013-06-05 23:46:00,68.0,67.5,29.80,ESE,112,0.0,9.0,98,0.00,,,0.17,Rainwise IP-100,2013-06-06 04:46:00,
2013-06-05 23:51:00,68.0,67.5,29.79,SW,225,4.0,4.0,98,0.00,,,0.17,Rainwise IP-100,2013-06-06 04:51:00,
2013-06-05 23:56:00,68.0,67.5,29.79,SW,225,5.0,5.0,99,0.00,,,0.17,Rainwise IP-100,2013-06-06 04:56:00,